Hourly Data Report for August 03, 2021

LYNN LAKE
MANITOBA
Current Station Operator: NAVCAN

56°51'50.000" N
101°04'34.000" W
356.60 m
5061645
71078
YYL

Download Data

Hourly Data (August 2021)
Hourly Data Report for August 3, 2021
TIME
LST
Temp Definition
°C
Dew Point Definition
°C
Rel Hum Definition
%
Precip. Amount Definition
mm

Wind Dir Definition
10's deg

Wind Spd Definition
km/h
Visibility Definition
km
Stn Press Definition
kPa
Hmdx Definition


Wind Chill Definition


Weather Definition


00:00 16.6 11.6 72 0.0 22 9 16.1 97.30     LegendNANA
01:00 16.7 10.6 67 0.0 22 9 16.1 97.26     LegendNANA
02:00 15.6 10.8 73 0.0 23 9 16.1 97.23     LegendNANA
03:00 15.8 11.2 74 0.0 23 11 16.1 97.18     LegendNANA
04:00 17.1 11.4 69 0.0 24 17 16.1 97.12     LegendNANA
05:00 16.6 11.8 73 0.0 23 11 6.4 97.11     Haze
06:00 17.1 12.7 75 0.0 23 15 4.0 97.06     Haze
07:00 19.5 14.3 71 0.0 25 17 2.4 97.06     Haze
08:00 22.0 15.1 65 0.0 25 18 1.6 97.00 26   Haze
09:00 24.9 14.6 52 0.0 25 13 3.6 96.96 29   Haze
10:00 26.3 14.5 48 0.0 26 24 4.8 96.90 30   Haze
11:00 28.4 13.5 39 0.0 27 21 6.4 96.86 31   Haze
12:00 29.4 13.7 38 0.0 29 21 8.1 96.79 33   Haze
13:00 29.6 14.2 39 0.0 29 17 4.8 96.76 33   Haze
14:00 30.4 13.1 34 0.0 29 15 4.8 96.72 33   Haze
15:00 30.7 12.0 31 0.0 28 21 6.4 96.68 33   Haze
16:00 29.8 12.5 34 0.0 28 21 4.8 96.65 32   Haze
17:00 28.7 11.7 34 0.0 26 11 6.4 96.64 31   Haze
18:00 28.5 11.4 34 0.0 26 11 4.8 96.60 30   Haze
19:00 27.6 10.4 34 0.0 24 13 4.8 96.54 29   Haze
20:00 26.3 12.9 43 0.0 25 18 2.4 96.52 29   Haze
21:00 24.7 13.4 49 0.0 25 15 1.6 96.52 28   Haze
22:00 23.7 14.1 54 0.0 25 21 1.6 96.52 27   Haze
23:00 23.5 15.2 59 0.0 24 17 1.6 96.50 28   Haze

Notes on Data Quality.

Legend

  • E = Estimated
  • M = Missing
  • NA = Not Available*
  • [empty] = Indicates an unobserved value
Date modified: